Regional Weather Roundup
Issued by NWS

Home | Current Version | Previous Version | Text Only | Print | Product List | Glossary On
Versions: 1 2 3 4 5 6 7 8 9 10 11 12 13 14 15 16 17 18 19 20 21 22 23 24 25 26 27 28 29 30 31 32 33 34 35 36 37 38 39 40 41 42 43 44 45 46 47 48 49 50
000
ASUS43 KDTX 220810
RWRMI
MICHIGAN HOURLY REGIONAL WEATHER ROUNDUP
NATIONAL WEATHER SERVICE DETROIT/PONTIAC MI
400 AM EDT MON SEP 22 2014

NOTE: "FAIR" INDICATES FEW OR NO CLOUDS BELOW 12,000 FEET WITH NO
SIGNIFICANT WEATHER AND/OR OBSTRUCTION TO VISIBILITY.

MIZ047>049-052>055-059>063-066>070-074>076-081>083-220900-
SOUTHEAST LOWER MICHIGAN

CITY           SKY/WX    TMP DP  RH WIND       PRES   REMARKS
ADRIAN         CLOUDY    48  39  71 N12       30.09S
ALMA           CLOUDY    47  41  81 W3        30.11R
ANN ARBOR      CLOUDY    47  38  71 NW8       30.07R
BAD AXE        CLOUDY    47  42  81 NW10      30.04R
DETROIT CITY   CLOUDY    51  38  60 NW10      30.05S
DETROIT        CLOUDY    48  38  68 NW13      30.07R
FLINT          CLOUDY    49  38  65 NW12      30.08R
GROSSE ILE     CLOUDY    50  41  71 NW12      30.05R
HILLSDALE      CLOUDY    47  39  75 N9        30.09S
HOWELL         CLOUDY    46  37  73 NW10      30.08R

CITY           SKY/WX    TMP DP  RH WIND       PRES   REMARKS
JACKSON        CLOUDY    46  38  73 N8        30.10R
LAMBERTVILLE   CLOUDY    48  37  66 NW8       30.08S
LANSING        CLOUDY    47  38  71 NW5       30.10S
LAPEER         NOT AVBL
MASON          CLOUDY    46  38  73 NW9       30.09R
MONROE         CLOUDY    48  41  76 NW5       30.06R
MT. CLEMENS    CLOUDY    48  40  73 NW8       30.03R
PONTIAC        CLOUDY    46  37  71 NW12      30.05R
PORT HOPE        N/A     52  42  69 VRB6      30.00R
PORT HURON     CLOUDY    48  43  81 NW7       30.02S
TRI CITIES     CLOUDY    48  40  73 W7        30.09R
YPSILANTI      CLOUDY    50  39  66 NW9       30.07S
$$
MIZ043>046-050>051-056>058-064>065-071>073-077>080-220900-
SOUTHWEST LOWER MICHIGAN

CITY           SKY/WX    TMP DP  RH WIND       PRES   REMARKS
BATTLE CREEK   CLOUDY    47  38  71 NW9       30.12S
BENTON HARBOR  CLOUDY    48  40  73 NE8       30.15R
BIG RAPIDS     MOCLDY    44  41  89 W3        30.11S
COLDWATER      CLOUDY    47  39  72 N7        30.11S
HOLLAND        CLOUDY    49  39  68 N5        30.16S
GRAND RAPIDS   CLOUDY    48  39  71 NW10      30.14R
KALAMAZOO      CLOUDY    47  37  68 N10       30.13S
MARSHALL       CLOUDY    46  38  75 NW3       30.10S
MUSKEGON       MOCLDY    48  39  71 N3        30.15S
$$
MIZ016>042-220900-
NORTHERN LOWER MICHIGAN

CITY           SKY/WX    TMP DP  RH WIND       PRES   REMARKS
ALPENA         CLOUDY    46  39  76 N9        30.05R
BEAVER ISLAND  MOCLDY    46  39  77 N6        30.11R
BELLAIRE       CLOUDY    47  41  77 NW3       30.09S
CADILLAC       CLOUDY    43  40  91 NW5       30.09R
CHARLEVOIX     CLOUDY    49  40  71 NW7       30.12S
FRANKFORT      MOSUNNY   48  39  70 N8        30.13R
GAYLORD        MOCLDY    43  36  76 VRB7      30.07R
GRAYLING       CLOUDY    44  41  91 W3        30.08R
HARBOR SPRINGS CLOUDY    43  40  86 CALM      30.08S
HOUGHTON LAKE  CLOUDY    44  40  85 NW7       30.08R
MANISTEE       MOCLDY    46  37  71 N5        30.13S
OSCODA         CLOUDY    46  41  84 NW6       30.03S
PELLSTON       CLOUDY    46  37  71 N7        30.09R
TRAVERSE CITY  CLOUDY    49  38  65 N10       30.10R
$$
MIZ007>008-015-220900-
EASTERN UPPER MICHIGAN

CITY           SKY/WX    TMP DP  RH WIND       PRES   REMARKS
KINROSS        CLOUDY    45  37  76 NW3       30.07R
MACKINAC ISLAN CLOUDY    46  37  70 N9        30.08R
NEWBERRY       CLEAR     39  35  84 NW7       30.09S
S. S. MARIE    CLOUDY    44  35  70 NW7       30.07R
$$
MIZ004>006-011>014-085-220900-
CENTRAL UPPER MICHIGAN

CITY           SKY/WX    TMP DP  RH WIND       PRES   REMARKS
MANISTIQUE     CLEAR     37  36  96 NW6       30.11S
ESCANABA       CLEAR     36  34  93 W3        30.13S
MENOMINEE      CLEAR     37  36  93 NW3       30.15S
SAWYER-GWINN   CLEAR     34  33  96 CALM      30.12F
$$
MIZ001>003-009>011-084-220900-
WESTERN UPPER MICHIGAN

CITY           SKY/WX    TMP DP  RH WIND       PRES   REMARKS
IRON MOUNTAIN  CLEAR     35  33  92 CALM      30.12F
HOUGHTON       CLEAR     38  35  89 NW8       30.10F
COPPER HARBOR    N/A     43  38  82 VRB5      30.09F
IRONWOOD         N/A     37  37 100 CALM      30.13F VSB 3/4
$$

ABBREVIATIONS USED IN REMARKS
   TC - TEMPERATURE IN CELSIUS
  WCI - WIND CHILL INDEX
   HX - HEAT INDEX
  VSB - VISIBILITY




USA.gov is the U.S. government's official web portal to all federal, state and local government web resources and services.